Location: Huntsville
(41.2590°N, 111.7678°W)
Time: 20:38:17
(UTC+00:00)

Explorer 7 - Pass Details

Date: 16 June 2021
Orbit: 484 x 676 km, 50.3° (Epoch: 30 July)

Event Time Altitude Azimuth Distance (km) Brightness Sun altitude
Rises 05:56:44 0° 240° (WSW) 3,016 10.5 -22.0°
Reaches altitude 10° 05:59:07 10° 241° (WSW) 2,099 9.7 -22.2°
Maximum altitude 06:03:59 78° 328° (NNW) 679 7.2 -22.5°
Drops below altitude 10° 06:08:43 10° 55° (NE) 2,039 9.9 -22.8°
Sets 06:11:01 0° 57° (ENE) 2,924 10.7 -23.0°
